Showing default

CHINASAT 3B, 64062

Orbit data source: Space-Track

CHINASAT 3B, 64062 is a payload satellite owned by PLA SSF (CN) in GEO that was launched on Tue, 20 May 2025 UTC via a CHANG ZHENG 7A launch vehicle from the Wenchang Satellite Launch Center (WSC). Payload-class satellites include a variety of spacecraft equipped with specific instruments for various scientific and technological missions. These include communications satellites like Starlink; space stations such as the ISS; scientific satellites like the Hubble; Earth observation satellites from companies like Planet Labs, Umbra, and HawkEye 360; GPS; miniature CubeSats for education and research; and military/defense satellites.

Not visible in the next 10 days
Identifier
64062, 2025-106A
Orbit
GEO
Country
Flag of CNCN / PRC
Related business
Manufacturer
SISE
Mission
Operational Defense Communications
Bus & Motor
FY-4?, LAE
Mass
~5,000 kg wet, ~2,500 kg dry
Launch date (UTC)
2025-05-20 (1 year ago)
Launch vehicle
CHANG ZHENG 7A
Launch site
Wenchang Satellite Launch Center (WSC)
Object type
Payload
Rocket body
Debris
Shape & HBR
Box + 2 Pan, 22.5 m
Radar Cross Section
34.063 m², Large (>1 m²)

Expand to show TLE details & history
Last TLE update: 1 day ago

TLE from 1 day ago
0 CHINASAT 3B
1 64062U 25106A   26170.92605017 -.00000051  00000-0  00000-0 0  9995
2 64062   0.0316 127.6515 0002996 356.8767 284.2969  1.00270413  4085
Epoch: 2026-06-19T22:13Z
TLE epoch observation values (Epoch: 2026-06-19T22:13:30.734Z)
Latitude
-0.00456°
Longitude
167.27839°
Altitude
35,783.297 km
Speed
3.075 km/s
True Right ascension
03h 15m 13s
True Declination
0° 00' 16"
Sunlit
Object was in daylight at epoch
Visualization orbit readout
Latitude
Unknown
Longitude
Unknown
Altitude
Unknown
Speed
Unknown
Apparent Right ascension
Unknown
Apparent Declination
Unknown
Sunlit
N/A
Visualization observer readout
Local Sidereal Time
08:42:57
Azimuth
Unknown
Elevation
Unknown
Doppler factor
Unknown
Orbital elements
Apogee altitude
35,800.683 km
Perigee altitude
35,775.417 km
Semi-major axis
42,166.187 km
Eccentricity
0.0003
Inclination
0.0316°
RAAN
127.6515°
Arg. of periapsis
356.8767°
True anomaly
284.26363°
Mean anomaly
284.2969°
Eccentric anomaly
284.28026°
Mean motion
0.25067 °/min
Orbital period
1,436.17 mins
BSTAR
0
Loading maneuver chart data...
Computing Atmospheric mass density...
Loading historical data...
Loading historical data...
Loading historical data...
Loading historical data...
Loading historical data...
Loading historical data...
Loading historical data...
Other satellites on launch #106 in the year 2025 (2025-05-20 UTC)

Documentation

Showing up to 5 results
|